Met observations

Date (UTC) Wind direction m/s kts. Vis. * Weather * Cloud * Temperature (°C) Dew point (°C) Air pressure (Hp)
24-05 12:31 7 14 VIS 10 km FEW 1200ft 10.8 8.9 1021.4
24-05 12:21 7 14 VIS 10 km FEW 1200ft 10.8 8.7 1021.5
24-05 12:11 9 17 VIS 10 km FEW 1200ft 11.7 9.2 1021.6
24-05 12:01 9 18 VIS 10 km FEW 1200ft 11.4 8.8 1021.6
24-05 11:51 8 16 VIS 10 km FEW 1200ft 11.9 9.3 1021.4
24-05 11:41 8 16 VIS 10 km SCT 4000ft 11.8 8.4 1021.5
24-05 11:31 7 14 VIS 10 km SCT 4000ft 11.9 8.5 1021.5
24-05 11:21 7 13 VIS 10 km SCT 4000ft 11.8 8.4 1021.6
24-05 11:11 7 14 VIS 10 km SCT 4000ft 11.8 8.5 1021.6
24-05 11:01 9 17 VIS 10 km SCT 4000ft 11.7 8.5 1021.7
24-05 10:51 8 16 VIS 10 km SCT 4000ft 11.5 8.0 1021.7
24-05 10:41 8 16 VIS 10 km SCT 4000ft 11.9 8.3 1021.8
24-05 10:31 7 14 VIS 10 km SCT 4000ft 11.5 7.8 1021.9
24-05 10:21 6 12 VIS 10 km SCT 4000ft 11.5 7.9 1021.8
24-05 10:11 6 12 VIS 10 km SCT 4000ft 11.6 7.9 1021.9
24-05 10:01 6 11 VIS 10 km SCT 4000ft 11.5 7.7 1021.9
24-05 09:51 6 11 VIS 10 km SCT 4000ft 11.3 7.3 1022.0
24-05 09:41 6 11 VIS 10 km SCT 4000ft 11.2 7.6 1022.0
24-05 09:31 6 12 VIS 10 km SCT 4000ft 10.6 7.6 1022.2
24-05 09:21 8 15 VIS 10 km SCT 4000ft 11.4 7.9 1022.2
24-05 09:11 6 11 VIS 10 km SCT 4000ft 11.2 7.3 1022.3
24-05 09:01 7 14 VIS 10 km SCT 4000ft 11.5 7.5 1022.3
24-05 08:51 6 12 VIS 10 km SCT 4000ft 11.2 7.0 1022.4
24-05 08:41 6 11 VIS 10 km SCT 4000ft 11.1 7.1 1022.4
24-05 08:31 6 11 VIS 10 km SCT 4000ft 11.0 7.1 1022.3
24-05 08:21 6 11 VIS 10 km SCT 4000ft 10.6 7.0 1022.4
24-05 08:11 6 12 VIS 10 km SCT 4000ft 10.7 7.0 1022.3
24-05 08:01 5 10 VIS 10 km SCT 4000ft 10.6 7.3 1022.2
24-05 07:51 6 11 VIS 10 km SCT 4000ft 10.0 7.5 1022.4
24-05 07:41 7 13 VIS 10 km SCT 4000ft 9.6 7.9 1022.6
24-05 07:31 6 12 VIS 10 km SCT 4000ft 9.6 8.0 1022.7
24-05 07:21 6 12 VIS 10 km SCT 4000ft 9.4 8.1 1022.8
24-05 07:11 7 14 VIS 10 km SCT 4000ft 9.3 8.0 1022.8
24-05 07:01 7 13 VIS 10 km SCT 4000ft 9.2 7.9 1022.8
24-05 06:51 6 12 VIS 10 km SCT 4000ft 9.0 7.8 1022.8
24-05 06:41 5 10 VIS 10 km SCT 4000ft 9.0 7.9 1022.9
24-05 06:31 7 13 VIS 10 km SCT 4000ft 8.8 7.8 1023.0
24-05 06:21 7 13 VIS 10 km SCT 4000ft 8.8 7.7 1023.1
24-05 06:11 6 12 VIS 10 km SCT 4000ft 8.8 7.7 1023.1
24-05 06:01 5 10 VIS 10 km SCT 4000ft 8.8 7.8 1023.2
24-05 05:51 5 10 VIS 10 km SCT 4000ft 8.7 7.8 1023.1
24-05 05:41 5 10 VIS 10 km SCT 4000ft 8.7 7.8 1023.2
24-05 05:31 5 10 VIS 10 km SCT 4000ft 8.5 7.7 1023.3
24-05 05:21 5 10 VIS 10 km SCT 4000ft 8.5 7.7 1023.4
24-05 05:11 6 11 VIS 10 km SCT 4000ft 8.4 7.7 1023.5
24-05 05:01 6 11 VIS 10 km SCT 4000ft 8.4 7.6 1023.6
24-05 04:51 5 10 VIS 10 km SCT 4000ft 8.5 7.6 1023.7
24-05 04:41 7 13 VIS 10 km SCT 4000ft 8.4 7.5 1023.8
24-05 04:31 6 12 VIS 10 km SCT 4000ft 8.4 7.4 1023.9
24-05 04:21 6 12 VIS 10 km SCT 4000ft 8.5 7.4 1024.0
24-05 04:11 6 12 VIS 10 km SCT 4000ft 8.6 7.4 1024.0
24-05 04:01 6 11 VIS 10 km SCT 4000ft 8.7 7.4 1024.0
24-05 03:51 6 11 VIS 10 km SCT 4000ft 8.7 7.4 1024.2
24-05 03:41 5 10 VIS 10 km SCT 4000ft 8.6 7.3 1024.2
24-05 03:31 5 09 VIS 10 km SCT 4000ft 8.6 7.5 1024.2
24-05 03:21 5 09 VIS 10 km SCT 4000ft 8.4 7.6 1024.3
24-05 03:11 5 10 VIS 10 km SCT 4000ft 8.0 7.2 1024.4
24-05 03:01 4 07 VIS 10 km SCT 4000ft 7.9 7.1 1024.4
24-05 02:51 5 09 VIS 10 km SCT 4000ft 8.0 7.0 1024.4
24-05 02:41 4 07 VIS 10 km SCT 4000ft 8.1 6.8 1024.5
24-05 02:31 3 05 VIS 10 km SCT 4000ft 8.1 7.0 1024.5
24-05 02:21 5 09 VIS 10 km SCT 4000ft 8.1 7.1 1024.6
24-05 02:11 5 09 VIS 10 km SCT 4000ft 8.2 7.3 1024.6
24-05 02:01 5 10 VIS 10 km SCT 4000ft 8.4 7.5 1024.7
24-05 01:51 6 11 VIS 10 km SCT 4000ft 8.3 7.5 1024.7
24-05 01:41 5 09 VIS 10 km SCT 4000ft 8.3 7.6 1024.7
24-05 01:31 5 09 VIS 10 km SCT 4000ft 8.2 7.6 1024.7
24-05 01:21 6 11 VIS 10 km SCT 4000ft 8.2 7.8 1024.7
24-05 01:11 6 12 VIS 10 km SCT 4000ft 8.3 8.0 1024.8
24-05 01:01 6 11 VIS 10 km SCT 4000ft 8.4 8.2 1024.9
24-05 00:51 6 11 VIS 10 km SCT 4000ft 8.3 8.1 1025.0
24-05 00:41 5 10 VIS 10 km SCT 4000ft 8.2 8.0 1025.1
24-05 00:31 4 07 VIS 10 km SCT 4000ft 8.1 7.8 1025.2
24-05 00:21 4 08 VIS 10 km SCT 4000ft 8.0 7.7 1025.3
24-05 00:11 5 09 VIS 10 km SCT 4000ft 8.2 7.6 1025.3
24-05 00:01 4 08 VIS 10 km SCT 4000ft 8.2 7.6 1025.3
23-05 23:51 5 10 VIS 10 km SCT 4000ft 8.2 7.6 1025.4
23-05 23:41 5 10 VIS 10 km SCT 4000ft 8.3 7.6 1025.5
23-05 23:31 5 10 VIS 10 km SCT 4000ft 8.3 7.5 1025.6
23-05 23:21 4 08 VIS 10 km SCT 4000ft 8.4 7.4 1025.7
23-05 23:11 5 09 VIS 10 km SCT 4000ft 8.2 7.3 1025.8
23-05 23:01 6 11 VIS 10 km SCT 4000ft 8.1 7.4 1025.9
23-05 22:51 4 08 VIS 10 km SCT 4000ft 8.1 7.5 1025.9
23-05 22:41 5 10 VIS 10 km SCT 4000ft 7.9 7.5 1025.9
23-05 22:31 6 11 VIS 10 km SCT 4000ft 8.1 7.8 1025.9
23-05 22:21 6 12 VIS 10 km SCT 4000ft 8.4 8.0 1025.9
23-05 22:11 6 12 VIS 10 km SCT 4000ft 8.6 8.2 1025.8
23-05 22:01 6 11 VIS 10 km SCT 4000ft 8.6 8.2 1025.8
23-05 21:51 6 11 VIS 10 km SCT 4000ft 8.7 8.3 1025.8
23-05 21:41 6 11 VIS 10 km SCT 4000ft 8.8 8.4 1025.7
23-05 21:31 6 11 VIS 10 km SCT 4000ft 8.9 8.4 1025.7
23-05 21:21 6 11 VIS 10 km SCT 4000ft 8.8 8.4 1025.7
23-05 21:11 6 11 VIS 10 km SCT 4000ft 8.8 8.3 1025.8
23-05 21:01 6 11 VIS 10 km SCT 4000ft 8.8 8.3 1025.7
23-05 20:51 6 11 VIS 10 km SCT 4000ft 8.8 8.4 1025.7
23-05 20:41 6 12 VIS 10 km SCT 4000ft 8.8 8.2 1025.7
23-05 20:31 5 10 VIS 10 km SCT 4000ft 8.8 8.3 1025.7
23-05 20:21 5 10 VIS 10 km SCT 4000ft 8.8 8.3 1025.7
23-05 20:11 5 09 VIS 10 km SCT 4000ft 8.7 8.1 1025.8
23-05 20:01 5 10 VIS 10 km SCT 4000ft 8.6 8.0 1025.9
23-05 19:51 5 10 VIS 10 km SCT 4000ft 9.0 8.3 1025.8
23-05 19:41 7 13 VIS 10 km SCT 4000ft 9.1 8.3 1025.7
23-05 19:31 6 12 VIS 10 km SCT 4000ft 8.9 8.1 1025.6
23-05 19:21 6 11 VIS 10 km SCT 4000ft 9.0 8.3 1025.6
23-05 19:11 7 14 VIS 10 km SCT 4000ft 8.8 8.0 1025.7
23-05 19:01 6 12 VIS 10 km SCT 4000ft 8.8 8.1 1025.8
23-05 18:51 6 11 VIS 10 km SCT 4000ft 8.7 7.9 1025.8
23-05 18:41 5 10 VIS 10 km SCT 4000ft 8.8 8.0 1025.9
23-05 18:31 6 12 VIS 10 km SCT 4000ft 8.8 7.9 1025.9
23-05 18:21 6 11 VIS 10 km SCT 4000ft 8.9 7.8 1025.9
23-05 18:11 6 11 VIS 10 km SCT 4000ft 9.0 7.9 1025.8
23-05 18:01 6 12 VIS 10 km SCT 4000ft 9.0 7.9 1025.9
23-05 17:51 7 13 VIS 10 km SCT 4000ft 8.9 7.7 1025.8
23-05 17:41 7 13 VIS 10 km SCT 4000ft 9.0 7.7 1025.9
23-05 17:31 7 13 VIS 10 km SCT 4000ft 9.0 7.5 1026.0
23-05 17:21 7 14 VIS 10 km SCT 4000ft 9.3 7.7 1025.9
23-05 17:11 7 14 VIS 10 km SCT 4000ft 9.3 8.0 1026.0
23-05 17:01 7 14 VIS 10 km SCT 4000ft 8.9 7.5 1026.1
23-05 16:51 7 14 VIS 10 km SCT 4000ft 9.2 7.6 1026.1
23-05 16:41 8 16 VIS 10 km SCT 4000ft 9.2 7.6 1026.1
23-05 16:31 9 17 VIS 10 km SCT 4000ft 9.5 7.8 1026.1
23-05 16:21 9 17 VIS 10 km SCT 4000ft 9.3 7.3 1026.1
23-05 16:11 8 16 VIS 10 km SCT 4000ft 9.2 7.5 1026.0
23-05 16:01 9 17 VIS 10 km SCT 4000ft 9.0 7.6 1026.1
23-05 15:51 8 15 VIS 10 km SCT 4000ft 8.9 7.3 1026.2
23-05 15:41 8 15 VIS 10 km SCT 4000ft 9.1 7.6 1026.2
23-05 15:31 9 17 VIS 10 km SCT 4000ft 8.9 7.3 1026.2
23-05 15:21 8 16 VIS 10 km SCT 4000ft 9.2 7.5 1026.1
23-05 15:11 7 14 VIS 10 km SCT 4000ft 8.9 7.2 1026.1
23-05 15:01 8 15 VIS 10 km SCT 4000ft 9.2 7.6 1026.3
23-05 14:51 8 15 VIS 10 km SCT 4000ft 9.2 7.5 1026.2
23-05 14:41 8 15 VIS 10 km SCT 4000ft 9.0 7.2 1026.3
23-05 14:31 8 15 VIS 10 km SCT 4000ft 9.1 7.5 1026.3
23-05 14:21 8 16 VIS 10 km SCT 4000ft 8.8 7.2 1026.3
23-05 14:11 7 14 VIS 10 km SCT 4000ft 9.0 7.4 1026.3
23-05 14:01 8 15 VIS 10 km SCT 4000ft 9.1 7.7 1026.3
23-05 13:51 8 16 VIS 10 km SCT 4000ft 8.9 7.3 1026.3
23-05 13:41 8 16 VIS 10 km SCT 4000ft 8.9 7.4 1026.2
23-05 13:31 9 18 VIS 10 km SCT 4000ft 8.9 7.3 1026.2
23-05 13:21 9 17 VIS 10 km SCT 4000ft 9.0 7.3 1026.2
23-05 13:11 9 18 VIS 10 km SCT 4000ft 8.9 7.3 1026.2
23-05 13:01 9 18 VIS 10 km SCT 4000ft 9.3 7.4 1026.2
23-05 12:51 8 16 VIS 10 km SCT 4000ft 9.2 7.4 1026.2

Met data is updated every half hour and is for information only.
* Visibility, weather and cloud values are updated during the airport’s service hours only.
Flight planning documentation is available on opmet.dmi.dk.
For meteorological abbreviations, click here